10P/Tempel 2 (2021)

Japanese version
Home page
Updated on November 15, 2021

---------------------------------------------------------------------

* Profile

* Pictures

* Orbital Elements

Epoch 2021 July 5.0 TT = JDT 2459400.5
T 2021 Mar. 24.26184 TT                                 Rudenko
q   1.4124407            (2000.0)            P               Q
n   0.18403551     Peri.  195.49635     +0.68068602     +0.70896260
a   3.0610351      Node   117.80882     -0.64800925     +0.70016803
e   0.5385742      Incl.   12.03945     -0.34168780     +0.08447937
P   5.36
From 3860 observations 2003 Mar. 7-2021 June 28, mean residual 0".6.
     Nongravitational parameters A1 = +0.02, A2 = +0.0005.

* Finding Charts

* Magnitudes Graph

        H = 13.6  G = 0.15              [    ,-155]  (             - 2020 Oct. 20)
        m1 =  4.6 + 5 log d + 35 log r  [-155,   0]  (2020 Oct. 20 - 2021 Mar. 24)
        m1 =  7.2 + 5 log d + 18 log r  [   0, 405]  (2021 Mar. 24 - 2022 May   3)
        H = 13.6  G = 0.15              [ 405,    ]  (2022 May   3 -             )

---------------------------------------------------------------------

The orbital elements are published on M.P.E.C. 2021-N06.
The charts are made with StellaNavigator Ver.10 (AstroArts).
The magnitudes graphs are made with Comet for Windows.

---------------------------------------------------------------------

Copyright(C) Seiichi Yoshida (comet@aerith.net). All rights reserved.